Weather in Enkhor

Russia / Republic of Buryatia     50°31′03″N   105°49′57″E
temp.,
°C
wind,
m/s
gust,
m/s
humid.,
%
clouds,
%
prec.,
mm/h
press.,
hPa
HPBL,
m
25 may, wed
wed2523:00+15ssw1135100 0.0 102211
02:00+14wsw113999 0.0 102210
05:00+11w21455 0.0 102210
08:00+15wnw11385 0.0 1022292
11:00+19nnw123176 0.3 10201276
14:00+22ese232513 0.3 10172484
17:00+24e23222 0.0 10142299
20:00+21se22310 0.0 101325
26 may, thu
thu2623:00+17sse223634 0.0 101212
02:00+15s114098 0.0 101111
05:00+13sw2243100 0.0 101011
08:00+17sw1239100 0.0 1009289
11:00+22sw232892 0.0 1005891
14:00+26ssw2222100 0.0 10021441
17:00+28nne332078 0.0 10002819
20:00+23nne81227100 0.0 1001698
27 may, fri
fri2723:00+17nne51047100 0.1 1006533
02:00+16n2651100 0.2 1006599
05:00+15n255193 0.0 1007417
08:00+14nw774570 0.0 10081576
11:00+17n473173 0.0 10072439
14:00+19nnw672214 0.0 10052842
17:00+19n672179 0.0 10042638
20:00+16n482790 0.0 1003292
28 may, sat
sat2823:00+13nw3533100 0.0 100491
02:00+12nw3736100 0.0 1004210
05:00+11wnw6848100 0.0 1005355
08:00+12n7839100 0.0 10061600
11:00+13n91125100 0.0 10082281
14:00+14nnw1112245 0.0 10092496
17:00+14nnw9102294 0.0 10103013
20:00+11nnw811295 0.0 10111217
29 may, sun
sun2923:00+7wnw23365 0.0 101441
02:00+5w35405 0.0 101571
05:00+4w344714 0.0 101552
08:00+9wnw353780 0.0 1014373
11:00+13wnw372717 0.0 10112315
14:00+18nnw481829 0.0 10073227
17:00+18n89193 0.0 10062301
20:00+15nne47260 0.0 1006209